[[{"header":{"parameterUnit":"m.s-1","parameterCategory":1,"la1":30.2991,"la2":30.254,"lo1":-89.0895,"lo2":-89.0444,"dy":0.0017,"dx":0.0017,"nx":28,"ny":28,"refTime":"2023-08-15T21:00:00:Z","depth":0,"parameterNumber":2,"parameterNumberName":"U-component_of_WINDS"},"data":[0,0,0,0,0,0,0,0,0,0,0,0,0,0,0,0,0,0,0,0,0,0,0,0,0,0,0,0,0,0,0,0,0,0,0,0,0,0,0,0,0,0,0,0,0,0,0,0,0,0,0,0,0,0,0,0,0,0,0.5841,0.584,0,0.5762,0.5761,0.576,0.5721,0.5721,0.5721,0.5721,0.564,0.5638,0.5635,0,0,0,0,0,0,0,0,0,0,0,0,0,0.596,0.5958,0.5841,0.584,0.5839,0.5762,0.5761,0.5759,0.5721,0.5721,0.5721,0.5721,0.564,0.5638,0.5635,0,0,0,0,0,0,0,0,0,0,0,0,0,0.5897,0.5957,0.5841,0.581,0.5807,0.5762,0.5761,0.5759,0.5721,0.5721,0.5721,0.5721,0.5641,0.5638,0.5635,0.5615,0,0,0.5625,0.5624,0,0,0,0,0,0,0,0,0.5901,0.5893,0.5816,0.5812,0.5808,0.5751,0.5773,0.5711,0.5721,0.5753,0.5721,0.5721,0.5677,0.5671,0.5656,0.5611,0.5608,0.5625,0.5623,0.5621,0.562,0,0,0,0,0,0,0,0.5905,0.5896,0.581,0.5815,0.581,0.5801,0.5792,0.5761,0.5716,0.575,0.5747,0.5739,0.5675,0.5659,0.5653,0.5606,0.5625,0.5622,0.562,0.5619,0.5541,0.5541,0,0,0,0,0,0,0.5914,0.59,0.5812,0.5807,0.5855,0.5798,0.5788,0.5769,0.5716,0.5708,0.5739,0.5737,0.5664,0.5657,0.565,0.5623,0.5621,0.5618,0.5617,0.5541,0.5541,0.5541,0,0,0,0,0,0,0.5917,0.5907,0.5815,0.5853,0.584,0.5796,0.5775,0.5768,0.5752,0.5707,0.5699,0.5731,0.5664,0.5655,0.5624,0.562,0.5617,0.5614,0.5541,0.5541,0.5541,0.5568,0,0,0,0,0,0,0.5921,0.5908,0.59,0.5853,0.5838,0.579,0.5775,0.5766,0.5746,0.5744,0.5698,0.569,0.5663,0.5629,0.5621,0.5615,0.5611,0.5541,0.5541,0.5541,0.5568,0.5569,0.557,0,0,0,0,0,0.5925,0.5911,0.59,0.5889,0.5827,0.579,0.5782,0.5751,0.5746,0.5738,0.5709,0.5691,0.5622,0.5626,0.5616,0.561,0.5541,0.5541,0.5541,0.5567,0.5569,0.557,0,0,0,0,0,0,0.5959,0.5904,0.5891,0.5862,0.5831,0.5783,0.5772,0.5754,0.5724,0.5723,0.5686,0.5676,0.5648,0.5626,0.5632,0.5587,0.558,0.5578,0.5603,0.5604,0.5606,0.5611,0.5609,0,0,0,0,0,0.5963,0.5937,0.5891,0.5869,0.5855,0.5816,0.5798,0.5778,0.5744,0.5731,0.57,0.5668,0.5639,0.562,0.5591,0.5564,0.5554,0.5555,0.5557,0.5558,0.5556,0.554,0.554,0.554,0.554,0.554,0,0,0.5972,0.5938,0.5924,0.5875,0.5849,0.5823,0.5805,0.5778,0.5759,0.5727,0.5695,0.5671,0.5634,0.5604,0.559,0.5585,0.5554,0.5558,0.5559,0.5556,0.554,0.554,0.554,0.554,0.554,0.554,0,0,0.5973,0.5946,0.5924,0.5898,0.5858,0.5832,0.5828,0.5783,0.5765,0.5733,0.5709,0.5685,0.5635,0.5609,0.559,0.5581,0.5564,0.5573,0.558,0.5565,0.5565,0.5564,0.5561,0.556,0.5571,0.5572,0.5572,0,0.5988,0.5948,0.5916,0.589,0.5869,0.5839,0.5817,0.5793,0.5746,0.5732,0.5727,0.5664,0.5637,0.5601,0.5599,0.5584,0.5577,0.5578,0.5567,0.5567,0.5566,0.5562,0.5561,0.5573,0.5573,0.5573,0.5572,0,0.5968,0.5941,0.5928,0.5883,0.5861,0.5837,0.5801,0.5783,0.5764,0.5739,0.5706,0.5672,0.5635,0.5626,0.5607,0.5587,0.5585,0.5574,0.5566,0.5568,0.5564,0.5562,0.5575,0.5574,0.5574,0.5574,0,0,0.5989,0.5926,0.5922,0.5901,0.5854,0.5832,0.5808,0.5771,0.5756,0.5724,0.5702,0.5661,0.5651,0.5629,0.5607,0.5593,0.5588,0.5584,0.5583,0.5586,0.5564,0.5572,0.5571,0.5577,0.5576,0.5576,0.5567,0,0.5983,0.5937,0.5907,0.5873,0.5846,0.5818,0.5796,0.5765,0.5741,0.5716,0.5689,0.566,0.5649,0.5635,0.5621,0.5592,0.5583,0.5592,0.5556,0.5555,0.5566,0.5568,0.5577,0.5569,0.5565,0.5565,0.5564,0,0.5971,0.594,0.5902,0.5859,0.5847,0.5828,0.5792,0.5768,0.5732,0.5716,0.5691,0.5669,0.5641,0.5636,0.5597,0.5604,0.5587,0.5571,0.557,0.5565,0.556,0.5563,0.5566,0.5565,0.5562,0.5562,0.5562,0,0.5989,0.5938,0.5909,0.5891,0.584,0.5827,0.5805,0.577,0.575,0.5718,0.5705,0.5671,0.5653,0.5627,0.5597,0.5595,0.5561,0.5553,0.5547,0.5547,0.554,0.5541,0.554,0.5531,0.5531,0.5531,0.5531,0,0.5985,0.5964,0.5916,0.5898,0.5873,0.5839,0.5815,0.5791,0.5759,0.5736,0.5709,0.5688,0.565,0.5624,0.56,0.5572,0.5564,0.5549,0.5543,0.5551,0.5553,0.554,0.5539,0.553,0.553,0.5531,0.5531,0,0.6001,0.5968,0.5934,0.5888,0.5876,0.586,0.582,0.5802,0.5776,0.5748,0.5739,0.5699,0.5667,0.5634,0.5592,0.5576,0.5548,0.554,0.556,0.5556,0.5551,0.5552,0.5541,0.5538,0.5532,0.5532,0.5532,0,0.6001,0.5983,0.5935,0.5918,0.5896,0.5868,0.5848,0.5814,0.5793,0.5752,0.5738,0.5704,0.5675,0.5626,0.5594,0.5561,0.5551,0.555,0.5546,0.5555,0.555,0.5552,0.555,0.5551,0.5551,0.5551,0.5552,0,0.6004,0.5988,0.5959,0.5925,0.5901,0.5872,0.5842,0.5829,0.5789,0.5768,0.5735,0.5712,0.5668,0.5635,0.5598,0.5576,0.5557,0.5553,0.555,0.5558,0.557,0.5563,0.5563,0.5553,0.5553,0.5553,0.5553,0.5553,0.6011,0.5994,0.5957,0.5926,0.59,0.5872,0.5853,0.5825,0.5796,0.5758,0.574,0.5707,0.5672,0.562,0.5598,0.5572,0.5566,0.5562,0.556,0.556,0.5561,0.5575,0.5565,0.5565,0.5565,0.5565,0.5565,0,0.6012,0.5987,0.5958,0.5917,0.5892,0.5877,0.5843,0.5823,0.5794,0.5763,0.5735,0.5697,0.5665,0.563,0.5595,0.5581,0.5572,0.5573,0.5574,0.5569,0.5568,0.5574,0.5581,0.5581,0.5581,0.5581,0.5581,0.5581,0.6009,0.5979,0.596,0.5917,0.5892,0.5859,0.5841,0.5816,0.579,0.5749,0.5722,0.5699,0.5666,0.5629,0.5599,0.5589,0.5578,0.5582,0.557,0.557,0.5569,0.5568,0.5573,0.558,0.558,0.5572,0.5572,0.5572]},{"header":{"parameterUnit":"m.s-1","parameterCategory":1,"la1":30.2991,"la2":30.254,"lo1":-89.0895,"lo2":-89.0444,"dy":0.0017,"dx":0.0017,"nx":28,"ny":28,"refTime":"2023-08-15T21:00:00:Z","depth":0,"parameterNumber":3,"parameterNumberName":"V-component_of_WINDS"},"data":[0,0,0,0,0,0,0,0,0,0,0,0,0,0,0,0,0,0,0,0,0,0,0,0,0,0,0,0,0,0,0,0,0,0,0,0,0,0,0,0,0,0,0,0,0,0,0,0,0,0,0,0,0,0,0,0,0,0,1.568,1.5679,0,1.56,1.5599,1.5598,1.5578,1.5579,1.5579,1.558,1.5491,1.5488,1.5485,0,0,0,0,0,0,0,0,0,0,0,0,0,1.5807,1.5805,1.568,1.5679,1.5678,1.56,1.5599,1.5598,1.5578,1.5579,1.5579,1.558,1.5492,1.5488,1.5485,0,0,0,0,0,0,0,0,0,0,0,0,0,1.5742,1.5804,1.568,1.5659,1.5656,1.56,1.5599,1.5598,1.5578,1.5579,1.558,1.558,1.5493,1.5489,1.5484,1.5442,0,0,1.5471,1.547,0,0,0,0,0,0,0,0,1.5746,1.5737,1.5663,1.566,1.5657,1.56,1.5611,1.5545,1.5578,1.5607,1.558,1.5581,1.5526,1.5519,1.5502,1.5438,1.5434,1.5471,1.5468,1.5467,1.5465,0,0,0,0,0,0,0,1.575,1.574,1.5648,1.5662,1.5658,1.5651,1.5642,1.5599,1.5563,1.5605,1.5603,1.5595,1.5525,1.5506,1.55,1.5433,1.5471,1.5467,1.5465,1.5463,1.5328,1.5327,0,0,0,0,0,0,1.5759,1.5744,1.565,1.5645,1.5704,1.5648,1.5638,1.5617,1.5563,1.5556,1.5594,1.5594,1.5513,1.5505,1.5497,1.5443,1.5467,1.5463,1.546,1.5329,1.5328,1.5327,0,0,0,0,0,0,1.5762,1.5751,1.5654,1.5694,1.5682,1.5645,1.5621,1.5615,1.5597,1.5555,1.5548,1.5582,1.5514,1.5503,1.5456,1.544,1.5461,1.5457,1.5331,1.5329,1.5328,1.5335,0,0,0,0,0,0,1.5766,1.5752,1.5738,1.5694,1.568,1.5617,1.562,1.5613,1.5591,1.559,1.5543,1.5535,1.5513,1.5463,1.5452,1.5434,1.5453,1.5332,1.533,1.5328,1.5336,1.5334,1.5333,0,0,0,0,0,1.5771,1.5741,1.5737,1.5726,1.5661,1.5616,1.5607,1.5584,1.559,1.5573,1.5546,1.5537,1.5443,1.5458,1.5446,1.5426,1.5333,1.533,1.5328,1.5337,1.5335,1.5333,0,0,0,0,0,0,1.5781,1.5735,1.573,1.5686,1.5656,1.5613,1.5591,1.5582,1.5547,1.5548,1.5519,1.5508,1.5463,1.544,1.5457,1.5382,1.5388,1.5383,1.5399,1.5396,1.5394,1.54,1.545,0,0,0,0,0,1.5779,1.5748,1.5709,1.5674,1.5659,1.5628,1.5608,1.5593,1.5559,1.5545,1.5514,1.5479,1.5442,1.5418,1.5381,1.5333,1.5322,1.5314,1.5312,1.531,1.5306,1.5278,1.5274,1.532,1.532,1.532,0,0,1.5772,1.5744,1.5726,1.5676,1.565,1.5617,1.5617,1.5582,1.5557,1.5539,1.5494,1.547,1.5428,1.5381,1.5359,1.536,1.5291,1.5308,1.5307,1.5303,1.5275,1.5271,1.5267,1.5318,1.5319,1.5319,0,0,1.5745,1.5721,1.5689,1.5664,1.5626,1.5605,1.5598,1.5556,1.5541,1.5495,1.5481,1.5449,1.5386,1.5357,1.5334,1.5295,1.5285,1.5284,1.5273,1.5246,1.5243,1.5239,1.5225,1.522,1.528,1.528,1.528,0,1.5741,1.5693,1.5673,1.5639,1.5617,1.5602,1.5568,1.5544,1.5495,1.5478,1.5482,1.5402,1.5373,1.5318,1.5309,1.5291,1.528,1.5289,1.5246,1.5242,1.5238,1.5224,1.5219,1.528,1.528,1.528,1.528,0,1.569,1.5657,1.5636,1.5592,1.5567,1.5533,1.5506,1.5483,1.547,1.5449,1.5402,1.5367,1.5323,1.5309,1.5295,1.5252,1.5254,1.5252,1.5257,1.5235,1.522,1.5215,1.528,1.528,1.528,1.528,0,0,1.5666,1.5612,1.5605,1.5584,1.5541,1.5514,1.5479,1.5438,1.5419,1.5385,1.5353,1.5301,1.5298,1.5272,1.5255,1.5232,1.5203,1.5232,1.5231,1.5227,1.5151,1.5153,1.5147,1.5196,1.5195,1.5194,1.5154,0,1.5632,1.5572,1.5553,1.5502,1.547,1.5455,1.5424,1.5393,1.5372,1.534,1.5316,1.5279,1.5279,1.5263,1.5239,1.5212,1.5187,1.5214,1.5164,1.5163,1.5175,1.514,1.5141,1.5105,1.5149,1.5148,1.5147,0,1.5585,1.5554,1.55,1.5461,1.5447,1.542,1.5381,1.5352,1.5315,1.5301,1.5273,1.5258,1.5218,1.5227,1.5171,1.519,1.5168,1.5151,1.5149,1.5143,1.5153,1.5131,1.5093,1.5088,1.5138,1.5139,1.514,0,1.5572,1.5516,1.5476,1.5459,1.5413,1.5395,1.5374,1.5339,1.5316,1.5281,1.5265,1.5225,1.5203,1.5171,1.5145,1.5153,1.509,1.5097,1.5076,1.5077,1.5063,1.5064,1.502,1.505,1.505,1.505,1.505,0,1.5535,1.5503,1.547,1.5446,1.5408,1.5385,1.5348,1.5326,1.5295,1.5264,1.5248,1.5219,1.5187,1.5153,1.5132,1.5089,1.5078,1.5065,1.5059,1.5066,1.5067,1.505,1.5052,1.5049,1.5049,1.5049,1.505,0,1.5514,1.5491,1.5447,1.5408,1.5397,1.5371,1.5336,1.5311,1.5289,1.5251,1.524,1.5205,1.5165,1.5136,1.5083,1.5069,1.5021,1.5016,1.5035,1.5032,1.5012,1.5014,1.4955,1.4946,1.4983,1.4983,1.4983,0,1.5492,1.5467,1.5426,1.5406,1.5386,1.5353,1.533,1.5306,1.5282,1.5239,1.5219,1.5178,1.5144,1.5079,1.5047,1.5006,1.5,1.4982,1.4993,1.5,1.4998,1.5,1.4997,1.498,1.498,1.4979,1.4979,0,1.5456,1.5446,1.5415,1.5379,1.5353,1.5323,1.5293,1.5276,1.5246,1.522,1.518,1.5154,1.5101,1.5059,1.5015,1.4991,1.4979,1.4976,1.4969,1.4975,1.4986,1.4979,1.5029,1.4977,1.4978,1.4978,1.4978,1.4978,1.5433,1.541,1.5378,1.5343,1.5318,1.5291,1.5265,1.5242,1.5208,1.5165,1.5152,1.511,1.5073,1.5014,1.4989,1.4954,1.4955,1.4945,1.4942,1.494,1.494,1.4993,1.4946,1.4946,1.4946,1.4946,1.4946,0,1.5395,1.5374,1.5342,1.5302,1.5274,1.5269,1.5235,1.5211,1.5176,1.5144,1.5111,1.5064,1.5024,1.499,1.4948,1.4927,1.492,1.4916,1.4917,1.4911,1.4942,1.4952,1.4922,1.4922,1.4922,1.4922,1.4922,1.4922,1.5372,1.5333,1.5319,1.5267,1.5245,1.5206,1.5187,1.516,1.5135,1.5085,1.5052,1.5031,1.4998,1.4953,1.4916,1.4906,1.4891,1.4888,1.4878,1.4907,1.4909,1.4912,1.4921,1.4886,1.4885,1.485,1.485,1.4849]}]]